• In Österreich
  • Länderverzeichnis
  • Für 7 Tage
  • Wassertemperatur
  • Satellitenkarten
  • Wetterkarte
  • News
  • Widgets
  • user-avatar
    Anmelden

    Stündliche Wetter Sala

    Heute, 21 August, Dienstag

    Zeit Temperatur Niederschläge Wind Luftdruck Luftfeuchtigkeit
    00:00 +27°C° 0 mm 2 m/S 756 mmHg 75%
    01:00 +27°C° 0 mm 2 m/S 755 mmHg 77%
    02:00 +27°C° 0 mm 2 m/S 755 mmHg 79%
    03:00 +26°C° 0 mm 2 m/S 755 mmHg 81%
    04:00 +26°C° 0 mm 2 m/S 755 mmHg 83%
    05:00 +26°C° 0 mm 2 m/S 755 mmHg 84%
    06:00 +25°C° 0 mm 2 m/S 755 mmHg 86%
    07:00 +27°C° 0 mm 2 m/S 755 mmHg 79%
    08:00 +29°C° 0 mm 2 m/S 755 mmHg 71%
    09:00 +30°C° 0 mm 2 m/S 755 mmHg 63%
    10:00 +32°C° 0 mm 2 m/S 755 mmHg 57%
    11:00 +35°C° 0 mm 3 m/S 755 mmHg 51%
    12:00 +35°C° 0 mm 3 m/S 756 mmHg 48%
    13:00 +35°C° 0 mm 3 m/S 755 mmHg 47%
    14:00 +35°C° 0 mm 4 m/S 755 mmHg 46%
    15:00 +36°C° 0 mm 4 m/S 755 mmHg 45%
    16:00 +35°C° 0 mm 4 m/S 755 mmHg 50%
    17:00 +33°C° 0 mm 4 m/S 755 mmHg 55%
    18:00 +31°C° 0 mm 3 m/S 755 mmHg 60%
    19:00 +30°C° 0 mm 3 m/S 755 mmHg 64%
    20:00 +29°C° 0 mm 2 m/S 755 mmHg 67%
    21:00 +28°C° 0 mm 1 m/S 755 mmHg 71%
    22:00 +28°C° 0 mm 1 m/S 756 mmHg 72%
    23:00 +27°C° 0 mm 2 m/S 756 mmHg 72%

    Morgen, 22 August, Mittwoch

    Zeit Temperatur Niederschläge Wind Luftdruck Luftfeuchtigkeit
    00:00 +27°C° 0 mm 2 m/S 756 mmHg 73%
    01:00 +27°C° 0 mm 2 m/S 755 mmHg 74%
    02:00 +27°C° 0 mm 2 m/S 755 mmHg 75%
    03:00 +26°C° 0 mm 1 m/S 755 mmHg 76%
    04:00 +26°C° 0 mm 1 m/S 755 mmHg 78%
    05:00 +26°C° 0 mm 1 m/S 755 mmHg 80%
    06:00 +25°C° 0 mm 1 m/S 755 mmHg 81%
    07:00 +27°C° 0 mm 1 m/S 756 mmHg 74%
    08:00 +28°C° 0 mm 1 m/S 756 mmHg 67%
    09:00 +30°C° 0 mm 1 m/S 756 mmHg 60%
    10:00 +32°C° 0 mm 2 m/S 756 mmHg 54%
    11:00 +34°C° 0 mm 2 m/S 756 mmHg 48%
    12:00 +36°C° 0 mm 3 m/S 756 mmHg 42%
    13:00 +36°C° 0 mm 3 m/S 755 mmHg 41%
    14:00 +37°C° 0 mm 4 m/S 755 mmHg 41%
    15:00 +37°C° 0 mm 5 m/S 755 mmHg 40%
    16:00 +36°C° 0 mm 4 m/S 755 mmHg 44%
    17:00 +34°C° 0 mm 4 m/S 755 mmHg 47%
    18:00 +33°C° 0 mm 4 m/S 755 mmHg 51%
    19:00 +31°C° 0,1 mm 3 m/S 756 mmHg 55%
    20:00 +30°C° 0,1 mm 2 m/S 756 mmHg 58%
    21:00 +29°C° 0,1 mm 1 m/S 756 mmHg 62%
    22:00 +29°C° 0 mm 1 m/S 757 mmHg 63%
    23:00 +28°C° 0 mm 1 m/S 757 mmHg 63%

    übermorgen, 23 August, Donnerstag

    Zeit Temperatur Niederschläge Wind Luftdruck Luftfeuchtigkeit
    00:00 +28°C° 0 mm 1 m/S 757 mmHg 64%
    01:00 +28°C° 0 mm 2 m/S 756 mmHg 65%
    02:00 +27°C° 0 mm 2 m/S 756 mmHg 67%
    03:00 +27°C° 0 mm 2 m/S 756 mmHg 68%
    04:00 +26°C° 0 mm 2 m/S 756 mmHg 70%
    05:00 +26°C° 0 mm 1 m/S 756 mmHg 73%
    06:00 +26°C° 0 mm 1 m/S 756 mmHg 75%
    07:00 +27°C° 0 mm 1 m/S 756 mmHg 67%
    08:00 +29°C° 0 mm 1 m/S 756 mmHg 60%
    09:00 +31°C° 0 mm 2 m/S 756 mmHg 52%
    10:00 +32°C° 0 mm 2 m/S 756 mmHg 47%
    11:00 +35°C° 0 mm 2 m/S 756 mmHg 41%
    12:00 +37°C° 0 mm 3 m/S 756 mmHg 36%
    13:00 +37°C° 0 mm 3 m/S 756 mmHg 36%
    14:00 +38°C° 0 mm 4 m/S 756 mmHg 35%
    15:00 +38°C° 0 mm 4 m/S 756 mmHg 34%
    16:00 +37°C° 0 mm 4 m/S 756 mmHg 38%
    17:00 +35°C° 0 mm 4 m/S 756 mmHg 42%
    18:00 +34°C° 0 mm 5 m/S 756 mmHg 46%
    19:00 +33°C° 0 mm 4 m/S 756 mmHg 49%
    20:00 +31°C° 0 mm 3 m/S 757 mmHg 52%
    21:00 +29°C° 0 mm 2 m/S 757 mmHg 56%
    22:00 +29°C° 0 mm 2 m/S 757 mmHg 57%
    23:00 +29°C° 0 mm 2 m/S 757 mmHg 59%

    24 August, Freitag

    Zeit Temperatur Niederschläge Wind Luftdruck Luftfeuchtigkeit
    00:00 +28°C° 0 mm 2 m/S 757 mmHg 61%
    01:00 +28°C° 0 mm 2 m/S 757 mmHg 62%
    02:00 +27°C° 0 mm 2 m/S 757 mmHg 64%
    03:00 +27°C° 0 mm 2 m/S 756 mmHg 66%
    04:00 +26°C° 0 mm 2 m/S 756 mmHg 67%
    05:00 +26°C° 0 mm 2 m/S 756 mmHg 68%
    06:00 +26°C° 0 mm 1 m/S 756 mmHg 69%
    07:00 +27°C° 0 mm 1 m/S 757 mmHg 61%
    08:00 +29°C° 0 mm 1 m/S 757 mmHg 53%
    09:00 +31°C° 0 mm 1 m/S 757 mmHg 45%
    10:00 +34°C° 0 mm 2 m/S 757 mmHg 41%
    11:00 +35°C° 0 mm 3 m/S 757 mmHg 36%
    12:00 +37°C° 0 mm 3 m/S 757 mmHg 31%
    13:00 +37°C° 0 mm 4 m/S 756 mmHg 32%
    14:00 +38°C° 0 mm 4 m/S 756 mmHg 32%
    15:00 +39°C° 0 mm 5 m/S 756 mmHg 32%
    16:00 +36°C° 0 mm 5 m/S 756 mmHg 35%
    17:00 +35°C° 0 mm 5 m/S 756 mmHg 39%
    18:00 +33°C° 0 mm 5 m/S 756 mmHg 43%
    19:00 +32°C° 0 mm 4 m/S 756 mmHg 47%
    20:00 +30°C° 0 mm 3 m/S 756 mmHg 51%
    21:00 +28°C° 0 mm 3 m/S 757 mmHg 56%
    22:00 +28°C° 0 mm 2 m/S 757 mmHg 58%
    23:00 +27°C° 0 mm 2 m/S 757 mmHg 60%

    25 August, Samstag

    Zeit Temperatur Niederschläge Wind Luftdruck Luftfeuchtigkeit
    00:00 +27°C° 0 mm 2 m/S 757 mmHg 62%
    01:00 +27°C° 0 mm 2 m/S 756 mmHg 63%
    02:00 +26°C° 0 mm 2 m/S 756 mmHg 65%
    03:00 +26°C° 0 mm 2 m/S 756 mmHg 66%
    04:00 +26°C° 0 mm 2 m/S 756 mmHg 68%
    05:00 +25°C° 0 mm 1 m/S 756 mmHg 70%
    06:00 +25°C° 0 mm 1 m/S 756 mmHg 72%
    07:00 +27°C° 0 mm 1 m/S 756 mmHg 65%
    08:00 +28°C° 0 mm 2 m/S 756 mmHg 58%
    09:00 +30°C° 0 mm 2 m/S 756 mmHg 50%
    10:00 +31°C° 0 mm 2 m/S 756 mmHg 46%
    11:00 +34°C° 0 mm 3 m/S 755 mmHg 41%
    12:00 +36°C° 0 mm 3 m/S 755 mmHg 36%
    13:00 +36°C° 0 mm 4 m/S 755 mmHg 36%
    14:00 +36°C° 0 mm 4 m/S 754 mmHg 36%
    15:00 +36°C° 0 mm 4 m/S 754 mmHg 36%
    16:00 +35°C° 0 mm 4 m/S 754 mmHg 39%
    17:00 +34°C° 0 mm 4 m/S 754 mmHg 42%
    18:00 +33°C° 0 mm 4 m/S 754 mmHg 45%
    19:00 +31°C° 0 mm 3 m/S 754 mmHg 50%
    20:00 +29°C° 0 mm 2 m/S 755 mmHg 55%
    21:00 +28°C° 0 mm 2 m/S 755 mmHg 59%
    22:00 +28°C° 0 mm 2 m/S 755 mmHg 60%
    23:00 +27°C° 0 mm 1 m/S 755 mmHg 61%

    26 August, Sonntag

    Zeit Temperatur Niederschläge Wind Luftdruck Luftfeuchtigkeit
    00:00 +27°C° 0 mm 1 m/S 755 mmHg 62%
    01:00 +27°C° 0 mm 1 m/S 754 mmHg 63%
    02:00 +27°C° 0 mm 1 m/S 754 mmHg 64%
    03:00 +26°C° 0 mm 1 m/S 754 mmHg 64%
    04:00 +26°C° 0 mm 1 m/S 754 mmHg 65%
    05:00 +26°C° 0 mm 1 m/S 754 mmHg 66%
    06:00 +25°C° 0 mm 1 m/S 754 mmHg 67%
    07:00 +27°C° 0 mm 1 m/S 754 mmHg 60%
    08:00 +29°C° 0 mm 1 m/S 754 mmHg 53%
    09:00 +31°C° 0 mm 1 m/S 754 mmHg 46%
    10:00 +34°C° 0 mm 2 m/S 754 mmHg 41%
    11:00 +36°C° 0 mm 3 m/S 753 mmHg 36%
    12:00 +38°C° 0 mm 3 m/S 753 mmHg 31%
    13:00 +38°C° 0 mm 4 m/S 753 mmHg 32%
    14:00 +38°C° 0 mm 4 m/S 753 mmHg 32%
    15:00 +40°C° 0 mm 5 m/S 752 mmHg 32%
    16:00 +37°C° 0 mm 5 m/S 753 mmHg 36%
    17:00 +35°C° 0 mm 4 m/S 753 mmHg 39%
    18:00 +33°C° 0 mm 4 m/S 753 mmHg 43%
    19:00 +31°C° 0 mm 3 m/S 753 mmHg 47%
    20:00 +30°C° 0 mm 3 m/S 754 mmHg 52%
    21:00 +29°C° 0 mm 3 m/S 754 mmHg 56%
    22:00 +28°C° 0,4 mm 3 m/S 755 mmHg 59%
    23:00 +28°C° 0,4 mm 4 m/S 755 mmHg 63%
    Mehr zeigen